Location: Brookfield Center
(41.2406°N, 80.5579°W)
Time: 08:44:15
(UTC+00:00)

Cosmos 1953 Rocket - Pass Details

Date: 18 January 2020
Orbit: 603 x 636 km, 82.5° (Epoch: 27 February)

Event Time Altitude Azimuth Distance (km) Brightness Sun altitude
Rises 00:10:18 0° 175° (S) 2,907 7.1 -20.4°
Reaches altitude 10° 00:12:33 10° 171° (S) 2,008 6.2 -20.8°
Enters shadow 00:16:26 53° 120° (ESE) 785 3.7 -21.6°
